Home   Weather   Tucumán   Past weeks

Flag for Argentina Past Weather in Tucumán, Tucumán, Argentina — Yesterday and Last 2 Weeks

Now
55 °F

Overcast.


Feels Like: 55 °F
Forecast: 50 / 55 °F
Wind: No wind

Location: Tucuman Aerodrome

Current Time: Jun 28, 2017 at 7:34:13 am

Latest Report: Jun 28, 2017 at 6:00 am


Visibility: N/A

Pressure: 30.21 "Hg

Humidity: 77%

Dew Point: 48 °F

Location of TucumánLocation

Past Weather in Tucumán — Graph

°F

Tucumán Temperature Yesterday

Maximum temperature yesterday: 68 °F (at 3:00 pm)
Minimum temperature yesterday: 59 °F (at 10:00 pm)
Average temperature yesterday: 63 °F

High & Low Weather Summary for the Past Weeks

 TemperatureHumidityPressure
High77 °F (Jun 23, 4:00 pm)100% (Jun 17, 5:00 am)30.42 "Hg (Jun 17, 5:00 am)
Low19 °F (Jun 22, 9:00 am)27% (Jun 19, 12:00 pm)29.47 "Hg (Jun 16, 3:00 pm)
Average58 °F74%29.90 "Hg
* Reported Jun 13 6:00 am — Jun 28 6:00 am, Tucumán. Weather by CustomWeather, © 2017

Note: Actual official high and low records may vary slightly from our data, if they occured in-between our weather recording intervals... More about our weather records

Advertising

Tucumán Weather History for the Previous 24 Hours

Scroll right to see more
 ConditionsComfort  
Time TempWeatherWind HumidityBarometerVisibility
6:00 am
Wed, Jun 28
55 °FOvercast.No wind77%30.21 "HgN/A
5:00 am55 °FOvercast.5 mph77%30.21 "HgN/A
4:00 am57 °FOvercast.5 mph72%30.21 "HgN/A
3:00 am57 °FOvercast.No wind77%30.21 "HgN/A
2:00 am57 °FOvercast.5 mph77%30.24 "HgN/A
1:00 am57 °FOvercast.5 mph72%30.24 "HgN/A
12:00 am59 °FOvercast.5 mph63%30.21 "Hg5 mi
11:00 pm
Tue, Jun 27
59 °FOvercast.5 mph68%30.21 "Hg5 mi
10:00 pm59 °FPassing clouds.7 mph72%30.18 "Hg5 mi
9:00 pm61 °FPassing clouds.6 mph63%30.15 "Hg5 mi
8:00 pm61 °FPassing clouds.9 mph72%30.15 "Hg5 mi
7:00 pm64 °FMostly cloudy.9 mph64%30.12 "Hg5 mi
6:00 pm66 °FBroken clouds.9 mph60%30.07 "Hg5 mi
5:00 pm68 °FBroken clouds.10 mph56%30.07 "Hg5 mi
4:00 pm68 °FBroken clouds.9 mph56%30.04 "Hg5 mi
3:00 pm68 °FOvercast.9 mph53%30.04 "Hg5 mi
2:00 pm66 °FPartly sunny.9 mph56%30.07 "Hg5 mi
1:00 pm64 °FOvercast.No wind60%30.07 "Hg5 mi
12:00 pm64 °FOvercast.7 mph60%30.07 "Hg6 mi
11:00 am63 °FOvercast.No wind68%30.07 "Hg6 mi
10:00 am61 °FOvercast.No wind77%30.04 "Hg6 mi
9:00 am61 °FOvercast.No wind77%30.01 "Hg6 mi
8:00 am61 °FOvercast.5 mph83%29.95 "Hg6 mi
7:00 am61 °FOvercast.5 mph77%29.92 "Hg6 mi
Weather by CustomWeather, © 2017

See weather overviewHow to use our weather pages